Location: Unspecified
(0.0000°N, 0.0000°E)
Time: 15:25:19
(UTC+00:00)

DMSP B5D2-3 - Pass Details

Date: 14 June 2023
Orbit: 819 x 838 km, 98.7° (Epoch: 21 September)

Event Time Altitude Azimuth Distance (km) Brightness Sun altitude
Rises 04:32:33 0° 125° (SE) 3,366 8.7 -20.1°
Maximum altitude 04:38:13 10° 77° (ENE) 2,423 8.8 -18.8°
Drops below altitude 10° 04:39:07 10° 67° (ENE) 2,450 8.9 -18.6°
Sets 04:43:49 0° 29° (NNE) 3,341 9.2 -17.5°
